National Weather Service Hourly Weather Roundup
NOAA NWS Hourly Roundups by Site
Regional Weather Roundup for Sacramento, CA

To Select Another Site Choose from List

Select Site:  

128
ASUS46 KSTO 262315
RWRCA

NORTHERN AND CENTRAL CA REGIONAL WEATHER ROUNDUP
NATIONAL WEATHER SERVICE SACRAMENTO CA
400 PM PDT SUN MAY 26 2024

NOTE: FAIR INDICATES FEW OR NO CLOUDS BELOW 12,000 FEET WITH NO
SIGNIFICANT WEATHER AND/OR OBSTRUCTIONS TO VISIBILITY.

CAZ001-003-270000-
NORTHWEST AREA

CITY           SKY/WX    TMP DP  RH WIND       PRES   REMARKS
CRESCENT CITY  SUNNY     57  50  77 NW10      30.16S
UKIAH          SUNNY     84  43  23 NW13G21   29.97F
$$

CAZ006-505>513-270000-
BAY AREA

CITY           SKY/WX    TMP DP  RH WIND       PRES   REMARKS
SANTA ROSA     SUNNY     78  50  37 SW12      29.99F
SAN RAFAEL     N/A       74  MM  MM MISG
NAPA           SUNNY     73  56  54 S15       29.99F
CONCORD        SUNNY     79  48  33 SW13      29.97F
OAKLAND CITY   N/A       68  MM  MM MISG
OAKLAND        MOSUNNY   66  50  56 W16       30.03F
SAN FRAN CITY  N/A       61  MM  62 MISG
SAN FRAN ARPT  MOSUNNY   67  50  54 NW18      30.02F
LIVERMORE      SUNNY     79  51  37 W13       29.98F
HAYWARD        SUNNY     72  51  47 W15       30.01F
REDWOOD CITY   N/A       75  MM  43 MISG
MOFFETT ARPT   SUNNY     70  54  56 N16       30.00F
SAN JOSE ARPT  MOSUNNY   76  51  41 NW12      30.00F
$$
CAZ034-037-514>518-270000-
CENTRAL COAST

CITY           SKY/WX    TMP DP  RH WIND       PRES   REMARKS
WATSONVILLE    SUNNY     61  50  67 SW8       30.05F
SALINAS        SUNNY     62  48  60 NW13      30.04F
MONTEREY       MOSUNNY   60  48  64 W10       30.06F
SAN LUIS OBISP SUNNY     66  51  58 NW16      30.03S
SANTA MARIA    MOSUNNY   62  51  67 NW15      30.05F
HALF MOON BAY  SUNNY     55  52  88 NW10      30.07S
$$
CAZ015-016-270000-
NORTHERN SACRAMENTO VALLEY

CITY           SKY/WX    TMP DP  RH WIND       PRES   REMARKS
REDDING        SUNNY     86  38  18 VRB6      29.91F
RED BLUFF      SUNNY     86  47  25 SE8       29.93F
OROVILLE       SUNNY     84  49  29 VRB3      29.96F
$$
CAZ016>018-270000-
SOUTHERN SACRAMENTO VALLEY

CITY           SKY/WX    TMP DP  RH WIND       PRES   REMARKS
AUBURN         SUNNY     75  48  38 VRB7      30.00F
BEALE AFB      SUNNY     82  50  32 W6        29.94F
LINCOLN        SUNNY     81  46  30 W5        29.95F
MARYSVILLE     SUNNY     83  51  33 VRB3      29.95F
SAC INTL ARPT  SUNNY     83  51  33 W6        29.94F
MATHER AIRPORT SUNNY     81  50  34 VRB7      29.94F
DOWNTOWN SAC   N/A       83  MM  MM MISG
SAC EXEC ARPT  SUNNY     82  51  34 SW6       29.95F
VACAVILLE      SUNNY     86  55  34 W9        29.96F
TRAVIS AFB     SUNNY     83  52  34 SW14      29.94F
$$
CAZ019>021-270000-
SAN JOAQUIN VALLEY

CITY           SKY/WX    TMP DP  RH WIND       PRES   REMARKS
STOCKTON       SUNNY     83  52  34 NW12G22   29.95F
MODESTO        SUNNY     81  45  28 NW10      29.95F
MERCED         SUNNY     84  47  27 N10G18    29.94F
FRESNO         MOSUNNY   82  45  27 VRB3      29.95F
HANFORD        SUNNY     84  46  26 NW8       29.95F
PORTERVILLE    SUNNY     83  51  33 W8G16     29.95F
BAKERSFIELD    SUNNY     81  49  32 NW8       29.94F
$$
CAZ011-012-071-270000-
NORTHERN MOUNTAINS

CITY           SKY/WX    TMP DP  RH WIND       PRES   REMARKS
YREKA          SUNNY     79  35  20 VRB6      30.02F
MOUNT SHASTA   SUNNY     76  42  29 VRB5      30.03F
ALTURAS        SUNNY     73  33  23 VRB7      30.06F
$$
CAZ011-012-071-270000-
SIERRA NEVADA MTNS

CITY           SKY/WX    TMP DP  RH WIND       PRES   REMARKS
BLUE CANYON    SUNNY     65  40  39 VRB7      30.14S
TRUCKEE        SUNNY     70  30  23 SW6G17    30.11F
TAHOE VLY ARPT SUNNY     66  29  24 N8        30.13S
MAMMOTH LAKES  SUNNY     72  21  14 SW13G22   30.13S
$$



 

View Past Reports for Sacramento, CA.

Products Courtesy of NOAA-NWS
NWS Information Parsing Script by Ken True at Saratoga Weather - Script by SE Lincoln Weather.

powered by Cumulus v1.9.3 (1059)
Ambient Weather VWS v14.00
Weather-Display (10.37S-(b58))
Virtual VP software
Top Website Map Copyright © 2007 - 2024 Foresthillweather.com Never base important decisions on this or any weather information obtained from the Internet